This is the latest recevied weather packets stored in our database for station/object PA3CPS. If no packets are shown the sender has not sent any weather packets the latest 10 day(s).
| Time | Temp. | Humidity | Pressure | Rain* | Wind** | Luminosity | Snow |
|---|---|---|---|---|---|---|---|
| 1778050407 | 10° C | 85% | 1007.4 hPa | 0 mm | - | 105 W/m² | - |
| 1778050107 | 10° C | 86% | 1007.2 hPa | 0 mm | - | 97 W/m² | - |
| 1778049800 | 10° C | 86% | 1007.4 hPa | 0 mm | - | 81 W/m² | - |
| 1778049500 | 9.44° C | 87% | 1007.3 hPa | 0 mm | - | 69 W/m² | - |
| 1778049199 | 9.44° C | 87% | 1007.3 hPa | 0 mm | - | 63 W/m² | - |
| 1778048897 | 9.44° C | 87% | 1007.3 hPa | 0 mm | - | 62 W/m² | - |
| 1778048596 | 9.44° C | 87% | 1007.2 hPa | 0 mm | - | 58 W/m² | - |
| 1778048296 | 9.44° C | 87% | 1007.1 hPa | 0 mm | - | 51 W/m² | - |
| 1778047986 | 9.44° C | 88% | 1007.2 hPa | 0 mm | - | 44 W/m² | - |
| 1778047683 | 9.44° C | 88% | 1007 hPa | 0 mm | - | 42 W/m² | - |
| 1778047385 | 9.44° C | 88% | 1007.1 hPa | 0 mm | - | 39 W/m² | - |
| 1778047084 | 9.44° C | 88% | 1007 hPa | 0 mm | - | 35 W/m² | - |
| 1778046785 | 9.44° C | 88% | 1007 hPa | 0 mm | - | 32 W/m² | - |
| 1778046485 | 9.44° C | 88% | 1007.1 hPa | 0 mm | - | 28 W/m² | - |
| 1778046186 | 9.44° C | 89% | 1007 hPa | 0 mm | - | 23 W/m² | - |
| 1778045883 | 9.44° C | 89% | 1007 hPa | 0 mm | - | 19 W/m² | - |
| 1778045582 | 9.44° C | 89% | 1007 hPa | 0 mm | - | 18 W/m² | - |
| 1778045283 | 9.44° C | 89% | 1007 hPa | 0 mm | - | 16 W/m² | - |
| 1778044982 | 9.44° C | 89% | 1006.9 hPa | 0 mm | - | 14 W/m² | - |
| 1778044682 | 9.44° C | 89% | 1007 hPa | 0 mm | - | 14 W/m² | - |
| 1778044383 | 9.44° C | 89% | 1006.9 hPa | 0 mm | - | 12 W/m² | - |
| 1778043779 | 9.44° C | 89% | 1006.8 hPa | 0 mm | - | 9 W/m² | - |
| 1778043478 | 9.44° C | 89% | 1006.7 hPa | 0 mm | - | 9 W/m² | - |
| 1778043178 | 9.44° C | 89% | 1006.7 hPa | 0 mm | - | 7 W/m² | - |
| 1778042876 | 9.44° C | 89% | 1006.8 hPa | 0 mm | - | 7 W/m² | - |
* Rain latest hour (hover to see other rain measurements)
** Current wind speed in m/s (hover to see current wind gust speed)